Idaho Falls, ID

4:06 PM MST on November 24, 2017 (GMT -0700)
Fanning

Weather History for KIDA - March, 2013

Change the Weather History Date:

Tuesday, March 26, 2013

  Actual Average Record
Temperature  
Mean Temperature 40 °F 40 °F  
Max Temperature 50 °F 51 °F 68 °F (2007)
Min Temperature 29 °F 29 °F 8 °F (1955)
Degree Days  
Heating Degree Days 25 25  
Month to date heating degree days 804 779  
Since 1 July heating degree days 6367 6581  
Cooling Degree Days 0 0  
Month to date cooling degree days 0 0  
Year to date cooling degree days 0 0  
Moisture  
Dew Point 30 °F    
Average Humidity 73    
Maximum Humidity 92    
Minimum Humidity 54    
Precipitation  
Precipitation T in 0.03 in 0.27 in (1981)
Month to date precipitation 0.44 0.72  
Year to date precipitation 0.84 2.07  
Sea Level Pressure  
Sea Level Pressure 30.01 in    
Wind  
Wind Speed 7 mph (North)    
Max Wind Speed 21 mph    
Max Gust Speed 24 mph    
Visibility 10 miles    
Events Snow    
T = Trace of Precipitation, MM = Missing Value Source: NWS Daily Summary

Daily Weather History Graph

Daily Weather History Graph

Search for Another Location

Airport or City:

Trip Planner

Search our weather history database for the weather conditions in past years. The results will help you decide how hot, cold, wet, or windy it might be!

Date:

Astronomy

Mar. 26, 2013 Rise Set
Actual Time 7:20 AM MDT 7:48 PM MDT
Civil Twilight 6:51 AM MDT 8:16 PM MDT
Nautical Twilight 6:17 AM MDT 8:50 PM MDT
Astronomical Twilight 5:42 AM MDT 9:25 PM MDT
Moon 7:29 PM MDT (3/26) 6:39 AM MDT (3/26)
Length of Visible Light 13h 25m
Length of Day
12h 28m
Waxing Gibbous, 99% of the Moon is Illuminated
Mar 26
Waxing Gibbous
Mar 27
Full
Apr 2
Last Quarter
Apr 10
New
Apr 18
First Quarter

Hourly Weather History & Observations

Time (MDT) Temp. Windchill Dew Point Humidity Pressure Visibility Wind Dir Wind Speed Gust Speed Precip Events Conditions
12:53 AM 30.0 °F 26.5 °F 23.0 °F 75% 30.09 in 10.0 mi North 3.5 mph - N/A   Clear
1:53 AM 30.9 °F 25.2 °F 23.0 °F 72% 30.06 in 10.0 mi North 5.8 mph - N/A   Scattered Clouds
2:53 AM 30.9 °F 25.2 °F 23.0 °F 72% 30.05 in 10.0 mi North 5.8 mph - N/A   Overcast
3:53 AM 30.9 °F 24.3 °F 23.0 °F 72% 30.03 in 10.0 mi NNW 6.9 mph - N/A   Overcast
4:53 AM 30.0 °F 22.4 °F 23.0 °F 75% 30.01 in 10.0 mi North 8.1 mph - N/A   Overcast
5:53 AM 30.0 °F 22.4 °F 21.9 °F 72% 30.02 in 10.0 mi North 8.1 mph - N/A   Overcast
6:53 AM 30.9 °F 22.8 °F 23.0 °F 72% 30.01 in 9.0 mi NNE 9.2 mph - 0.00 in   Overcast
7:53 AM 30.9 °F 26.2 °F 25.0 °F 79% 30.03 in 10.0 mi North 4.6 mph - 0.00 in   Overcast
8:53 AM 35.1 °F 30.1 °F 26.1 °F 70% 30.01 in 10.0 mi NE 5.8 mph - N/A   Overcast
9:53 AM 36.0 °F 31.1 °F 28.9 °F 76% 30.02 in 8.0 mi North 5.8 mph - 0.00 in Snow Light Snow
10:53 AM 37.9 °F 31.5 °F 30.0 °F 73% 30.02 in 10.0 mi North 9.2 mph - 0.00 in   Overcast
11:53 AM 39.0 °F 34.0 °F 32.0 °F 76% 30.01 in 6.0 mi NE 6.9 mph - 0.00 in   Unknown
12:53 PM 41.0 °F 37.1 °F 34.0 °F 76% 30.00 in 10.0 mi NE 5.8 mph - 0.00 in   Overcast
1:53 PM 44.1 °F 40.1 °F 35.1 °F 71% 29.98 in 10.0 mi NNE 6.9 mph - N/A   Mostly Cloudy
2:53 PM 46.0 °F 42.5 °F 34.0 °F 63% 29.96 in 10.0 mi NNW 6.9 mph - N/A   Mostly Cloudy
3:53 PM 48.9 °F - 32.0 °F 52% 29.95 in 10.0 mi SSW 8.1 mph - N/A   Mostly Cloudy
4:53 PM 46.0 °F 38.5 °F 34.0 °F 63% 29.97 in 10.0 mi SSW 19.6 mph 24.2 mph N/A   Overcast
5:53 PM 42.1 °F 34.2 °F 34.0 °F 73% 30.00 in 10.0 mi South 16.1 mph - N/A   Mostly Cloudy
6:53 PM 39.9 °F 32.9 °F 34.0 °F 79% 30.00 in 10.0 mi South 11.5 mph - N/A   Clear
7:53 PM 39.0 °F 36.8 °F 34.0 °F 82% 30.01 in 10.0 mi South 3.5 mph - N/A   Clear
8:27 PM 37.4 °F 34.9 °F 33.8 °F 87% 29.97 in 10.0 mi WSW 3.5 mph - N/A   Mostly Cloudy
8:38 PM 37.4 °F 33.8 °F 33.8 °F 87% 29.97 in 10.0 mi SW 4.6 mph - N/A   Overcast
8:53 PM 37.9 °F - 35.1 °F 89% 30.01 in 10.0 mi Calm Calm - N/A   Overcast
9:53 PM 37.9 °F - 34.0 °F 86% 30.02 in 8.0 mi Calm Calm - N/A   Overcast
10:53 PM 37.9 °F - 35.1 °F 89% 30.02 in 10.0 mi Calm Calm - N/A   Overcast
11:53 PM 37.9 °F - 34.0 °F 86% 30.02 in 10.0 mi Calm Calm - N/A   Overcast